Date String (YYYY-MM-DD hh:mm:ss) UTC,Instrument flags,Ambient pressure (hPa),Sample flow (lpm),Bypass flow (lpm),Sample temperature (°C),Ambient temperature (°C),ASC tube jacket temperature (°C),LED temperature (°C),Box temperature (°C),Sample RH (%),Span deviation,Mass concentration (μg/m³),Mass concentration (μg/m³),Mass concentration (μg/m³)
DateTimeUTC,F1_M11,P_M11,Q1_M11,Q2_M11,T1_M11,T2_M11,T3_M11,T4_M11,T5_M11,U1_M11,ZSPAN_M11,X0_M11,X2_M11,X1_M11
2022-10-08 14:00:00,,0836.7,4.99,0.00,25.3,23.9,00.0,34.1,27.2,22.6,-001.7,0014.40,0009.34,0008.78
2022-10-08 14:01:00,,0836.7,5.00,0.00,25.3,23.9,00.0,34.1,27.2,22.7,-001.5,0013.95,0009.29,0008.76
2022-10-08 14:02:00,,0836.7,4.99,0.00,25.3,23.9,00.0,34.1,27.2,22.8,-001.6,0014.05,0009.34,0008.80
2022-10-08 14:03:00,,0836.7,5.01,0.00,25.3,23.9,00.0,34.1,27.2,22.9,-001.7,0014.08,0009.39,0008.85
2022-10-08 14:04:00,,0836.7,5.00,0.00,25.3,23.9,00.0,34.1,27.3,22.9,-001.8,0013.93,0009.36,0008.84
2022-10-08 14:05:00,,0836.7,5.00,0.00,25.3,23.9,00.0,34.1,27.3,23.1,-002.0,0013.27,0009.25,0008.74
2022-10-08 14:06:00,,0836.7,4.99,0.00,25.3,23.9,00.0,34.1,27.2,23.2,-002.1,0013.09,0009.13,0008.63
2022-10-08 14:07:00,,0836.7,5.00,0.00,25.3,24.0,00.0,34.1,27.3,23.4,-002.3,0012.76,0009.00,0008.49
2022-10-08 14:08:00,,0836.7,5.01,0.00,25.4,24.0,00.0,34.1,27.3,25.0,-002.5,0012.47,0008.82,0008.32
2022-10-08 14:09:00,,0836.7,5.01,0.00,25.4,24.0,00.0,34.1,27.3,25.8,-002.6,0012.37,0008.77,0008.27
2022-10-08 14:10:00,,0836.7,4.99,0.00,25.4,24.0,00.0,34.1,27.3,24.4,-002.4,0012.59,0008.75,0008.23
2022-10-08 14:11:00,,0836.6,5.00,0.00,25.4,24.0,00.0,34.1,27.3,23.9,-002.4,0012.91,0008.87,0008.34
2022-10-08 14:12:00,,0836.6,5.00,0.00,25.4,24.0,00.0,34.1,27.3,23.4,-002.4,0013.22,0009.09,0008.54
2022-10-08 14:13:00,,0836.7,5.00,0.00,25.4,24.0,00.0,34.1,27.3,23.5,-002.5,0013.31,0009.19,0008.66
2022-10-08 14:14:00,,0836.6,5.00,0.00,25.4,24.1,00.0,34.1,27.4,23.8,-002.7,0013.37,0009.23,0008.70
2022-10-08 14:15:00,,0836.6,4.99,0.00,25.4,24.1,00.0,34.1,27.4,23.7,-002.7,0013.51,0009.24,0008.73
2022-10-08 14:16:00,,0836.7,5.00,0.00,25.4,24.1,00.0,34.1,27.4,23.5,-002.4,0014.53,0009.44,0008.91
2022-10-08 14:17:00,,0836.7,5.01,0.00,25.4,24.1,00.0,34.1,27.4,23.6,-002.1,0014.87,0009.65,0009.11
2022-10-08 14:18:00,,0836.6,4.99,0.00,25.4,24.1,00.0,34.2,27.4,23.9,-001.9,0015.24,0009.84,0009.27
2022-10-08 14:19:00,,0836.6,5.00,0.00,25.4,24.1,00.0,34.2,27.4,24.0,-001.7,0015.93,0010.02,0009.41
2022-10-08 14:20:00,,0836.6,5.01,0.00,25.4,24.1,00.0,34.2,27.4,23.8,-001.6,0016.38,0010.22,0009.58
2022-10-08 14:21:00,,0836.7,5.00,0.00,25.4,24.1,00.0,34.2,27.4,24.1,-001.4,0016.37,0010.32,0009.69
2022-10-08 14:22:00,,0836.7,4.99,0.00,25.4,24.1,00.0,34.2,27.4,24.0,-001.2,0016.17,0010.29,0009.70
2022-10-08 14:23:00,,0836.7,5.01,0.00,25.4,24.1,00.0,34.2,27.4,23.6,-001.4,0016.22,0010.25,0009.64
2022-10-08 14:24:00,,0836.7,5.01,0.00,25.5,24.2,00.0,34.2,27.4,23.8,-001.2,0016.54,0010.27,0009.64
2022-10-08 14:25:00,,0836.7,4.99,0.00,25.5,24.2,00.0,34.2,27.4,23.4,-000.8,0016.94,0010.39,0009.71
2022-10-08 14:26:00,,0836.7,4.99,0.00,25.5,24.2,00.0,34.2,27.4,23.8,-000.8,0017.56,0010.49,0009.78
2022-10-08 14:27:00,,0836.7,5.00,0.00,25.5,24.2,00.0,34.2,27.4,23.7,-001.1,0016.74,0010.52,0009.79
2022-10-08 14:28:00,,0836.7,5.01,0.00,25.5,24.2,00.0,34.2,27.4,23.4,-001.3,0016.78,0010.59,0009.84
2022-10-08 14:29:00,,0836.7,5.00,0.00,25.5,24.2,00.0,34.2,27.5,22.8,-001.2,0017.00,0010.74,0009.98
2022-10-08 14:30:00,,0836.7,5.00,0.00,25.5,24.2,00.0,34.2,27.5,23.0,-001.2,0017.26,0010.92,0010.13
2022-10-08 14:31:00,,0836.7,5.01,0.00,25.5,24.2,00.0,34.2,27.4,22.6,-001.3,0017.41,0011.09,0010.26
2022-10-08 14:32:00,,0836.7,5.00,0.00,25.5,24.2,00.0,34.2,27.5,22.7,-001.5,0017.54,0011.30,0010.45
2022-10-08 14:33:00,,0836.7,4.99,0.00,25.5,24.2,00.0,34.2,27.5,22.9,-001.7,0018.46,0011.49,0010.59
2022-10-08 14:34:00,,0836.7,5.00,0.00,25.5,24.2,00.0,34.3,27.5,22.9,-001.6,0019.07,0011.55,0010.67
2022-10-08 14:35:00,,0836.7,5.00,0.00,25.5,24.2,00.0,34.3,27.5,23.1,-001.8,0018.85,0011.60,0010.72
2022-10-08 14:36:00,,0836.7,5.01,0.00,25.6,24.2,00.0,34.3,27.5,22.9,-001.8,0018.65,0011.68,0010.79
2022-10-08 14:37:00,,0836.7,4.99,0.00,25.6,24.2,00.0,34.3,27.5,22.9,-001.7,0018.45,0011.80,0010.89
2022-10-08 14:38:00,,0836.8,5.00,0.00,25.6,24.2,00.0,34.3,27.5,23.2,-001.6,0018.67,0011.94,0011.02
2022-10-08 14:39:00,,0836.7,5.00,0.00,25.6,24.3,00.0,34.3,27.5,23.4,-001.6,0019.09,0012.16,0011.14
2022-10-08 14:40:00,,0836.7,5.00,0.00,25.6,24.3,00.0,34.3,27.5,23.3,-001.8,0019.21,0012.25,0011.21
2022-10-08 14:41:00,,0836.7,5.00,0.00,25.6,24.3,00.0,34.3,27.5,23.5,-001.9,0019.01,0012.36,0011.32
2022-10-08 14:42:00,,0836.7,5.00,0.00,25.6,24.3,00.0,34.3,27.5,23.4,-001.9,0019.11,0012.45,0011.40
2022-10-08 14:43:00,,0836.7,4.99,0.00,25.6,24.3,00.0,34.3,27.5,23.3,-001.9,0019.47,0012.63,0011.51
2022-10-08 14:44:00,,0836.7,4.99,0.00,25.6,24.2,00.0,34.3,27.5,23.3,-002.0,0019.34,0012.86,0011.70
2022-10-08 14:45:00,,0836.7,5.01,0.00,25.6,24.3,00.0,34.3,27.5,23.4,-002.1,0018.91,0013.00,0011.83
2022-10-08 14:46:00,,0836.7,5.01,0.00,25.6,24.3,00.0,34.3,27.5,23.4,-002.0,0019.33,0013.14,0011.99
2022-10-08 14:47:00,,0836.7,5.00,0.00,25.6,24.3,00.0,34.3,27.5,23.4,-002.1,0020.38,0013.35,0012.20
2022-10-08 14:48:00,,0836.7,4.99,0.00,25.6,24.3,00.0,34.3,27.6,23.5,-002.1,0020.58,0013.52,0012.35
2022-10-08 14:49:00,,0836.7,5.00,0.00,25.6,24.3,00.0,34.3,27.5,23.7,-002.0,0020.75,0013.61,0012.41
2022-10-08 14:50:00,,0836.7,5.01,0.00,25.6,24.3,00.0,34.3,27.6,23.9,-002.2,0020.68,0013.55,0012.40
2022-10-08 14:51:00,,0836.7,5.01,0.00,25.6,24.3,00.0,34.3,27.6,24.0,-002.3,0020.63,0013.58,0012.44
2022-10-08 14:52:00,,0836.7,5.00,0.00,25.6,24.3,00.0,34.4,27.6,24.0,-002.3,0020.53,0013.56,0012.46
2022-10-08 14:53:00,,0836.7,5.00,0.00,25.6,24.4,00.0,34.4,27.6,24.1,-002.3,0020.56,0013.52,0012.46
2022-10-08 14:54:00,,0836.7,5.00,0.00,25.6,24.4,00.0,34.4,27.6,23.8,-002.4,0020.23,0013.46,0012.47
2022-10-08 14:55:00,,0836.7,4.99,0.00,25.7,24.4,00.0,34.4,27.6,23.6,-002.4,0020.07,0013.51,0012.53
2022-10-08 14:56:00,,0836.7,5.00,0.00,25.7,24.4,00.0,34.4,27.6,23.6,-002.3,0020.34,0013.65,0012.64
2022-10-08 14:57:00,,0836.7,5.01,0.00,25.7,24.4,00.0,34.4,27.6,23.8,-002.2,0021.11,0013.78,0012.71
2022-10-08 14:58:00,,0836.7,5.00,0.00,25.7,24.4,00.0,34.4,27.6,23.8,-002.3,0021.44,0013.83,0012.72
2022-10-08 14:59:00,,0836.7,4.99,0.00,25.7,24.4,00.0,34.4,27.6,23.6,-002.5,0022.79,0014.00,0012.85
